Theta_e
323 323 323 323 323 322 322 323 323 323 323 323 323 323 323 323 323 323 323 323 323 322 322 322 321 321 321 320 320 320 320 317 318 321 321 320 333 351 353 351 350 353 357 335 328 324 323 328 330 334 331 329 321 319 322 326 325 317 310 305 303 303 301 305 305 304 306 314 318 320 324 324 322 327 330 334 332 333 334 333 334 335 334 337 342 346 348 348
323 322 322 322 322 322 322 322 322 323 323 323 323 323 323 323 323 323 323 323 322 322 321 321 320 320 320 320 320 321 319 318 317 317 314 327 352 353 357 355 356 355 349 323 323 328 325 322 327 328 326 318 320 316 324 318 326 314 308 305 301 301 304 307 307 307 308 316 321 322 323 323 322 325 328 326 327 330 330 331 333 332 335 339 342 344 345 346
322 322 322 321 321 322 322 322 322 322 322 322 322 322 322 323 323 323 323 323 322 322 321 320 320 319 319 320 320 321 319 319 321 315 316 344 343 346 357 358 356 357 322 321 327 327 327 326 326 326 326 317 312 312 319 316 316 313 306 302 301 304 307 310 311 309 308 318 322 323 324 325 325 326 330 326 325 329 327 327 330 331 332 336 339 342 343 344
322 322 322 321 321 321 322 322 322 322 322 322 322 322 322 322 322 322 322 322 322 321 321 319 319 319 319 320 321 319 318 322 311 314 326 360 354 349 354 356 357 355 329 327 329 327 327 326 326 329 323 313 311 313 311 310 308 308 300 299 303 305 305 308 310 311 315 325 324 325 327 326 327 327 328 326 324 324 327 332 332 331 333 336 338 340 341 341
322 322 321 321 321 321 321 322 322 322 322 322 322 322 322 322 322 322 322 322 321 320 319 319 319 319 319 320 320 319 318 300 302 326 349 358 354 354 354 355 358 336 329 329 324 321 326 326 327 327 327 309 310 310 309 313 311 310 303 303 305 304 305 309 315 324 324 326 325 325 325 325 331 329 326 325 322 320 326 333 336 336 337 336 336 338 340 340
322 321 320 320 321 321 321 321 321 321 321 321 321 322 322 322 322 322 322 321 321 320 319 319 319 319 320 319 318 318 309 296 314 325 362 357 356 355 355 356 354 331 331 329 326 326 327 327 326 319 312 308 308 306 311 309 310 301 303 305 307 306 307 311 321 324 325 324 324 324 327 330 328 326 329 332 327 325 333 336 339 338 338 338 339 338 338 340
321 320 320 320 320 320 320 321 321 321 320 321 321 321 321 321 321 321 321 320 320 319 319 319 319 320 320 318 318 318 315 316 322 335 361 360 357 356 357 356 358 334 334 330 329 329 328 326 325 321 315 309 304 305 309 308 309 303 304 306 307 310 311 313 318 324 325 324 324 328 331 328 328 324 331 336 339 334 334 338 340 341 341 340 337 338 339 340
320 320 320 320 320 320 320 321 320 320 320 320 320 321 321 321 321 320 320 320 320 319 320 320 320 320 321 319 320 307 307 308 311 350 365 363 359 359 350 334 329 327 327 325 328 329 327 324 321 323 310 304 306 306 307 305 305 304 305 308 310 310 311 316 321 323 325 325 328 330 328 328 329 328 333 334 338 335 334 337 339 341 340 338 337 338 339 339
320 320 320 320 320 320 320 320 320 320 320 320 320 320 320 320 320 320 320 320 320 320 320 320 319 321 322 320 320 310 310 313 318 353 353 347 348 347 335 330 330 323 323 325 327 328 326 321 320 314 305 307 309 307 305 304 300 308 306 309 309 311 311 311 317 319 324 327 331 330 328 329 331 335 331 336 338 336 336 337 338 338 337 336 337 338 339 339
320 320 319 319 320 320 320 320 320 320 320 320 320 320 320 319 319 320 320 320 320 320 320 320 321 322 321 320 318 306 314 334 345 348 340 339 340 341 338 333 330 326 325 324 325 325 323 322 320 319 312 309 309 307 307 305 302 308 310 309 309 311 312 314 315 315 320 326 332 328 328 329 331 332 324 336 340 339 336 335 336 335 334 335 337 339 340 341
319 319 320 320 320 320 320 320 320 320 320 320 320 319 319 319 319 320 320 321 321 321 322 321 322 320 320 323 306 303 322 329 336 336 334 335 331 329 327 328 330 328 327 325 324 324 324 323 323 318 312 308 310 308 307 307 309 310 310 310 311 311 312 313 317 318 320 320 327 327 326 332 333 333 329 336 341 341 337 337 339 340 336 334 335 337 339 340
319 319 319 319 319 320 320 320 320 320 320 320 319 319 319 319 319 319 320 321 321 322 322 322 324 321 321 322 315 310 327 326 333 332 332 330 326 327 326 327 330 328 327 323 323 323 323 323 317 314 306 312 304 311 308 310 311 310 310 307 309 312 312 313 315 317 320 318 325 327 324 325 330 328 335 338 340 341 340 339 340 340 339 338 338 339 339 338
319 319 319 319 319 319 319 320 319 319 319 319 319 318 319 319 319 319 320 320 322 322 323 324 323 323 321 318 322 331 331 327 329 330 331 328 326 325 325 325 328 329 327 323 321 323 320 315 315 310 312 311 309 305 309 312 311 312 309 307 308 305 307 313 315 317 320 320 324 321 308 315 326 332 336 339 339 339 337 337 339 339 339 339 338 338 339 341
319 318 319 319 319 319 319 319 319 319 318 318 318 317 317 318 318 319 320 320 323 325 325 326 323 323 322 319 330 331 335 327 330 327 328 328 325 324 325 325 324 324 326 323 323 322 320 314 316 314 320 312 307 313 311 312 312 304 308 304 301 302 301 311 312 316 318 321 320 323 309 312 323 329 335 337 339 337 335 337 337 337 337 338 339 341 342 344
318 318 318 318 319 319 319 319 318 317 317 317 317 317 317 316 318 320 322 323 323 326 328 327 325 323 319 321 331 326 362 327 323 323 327 325 323 323 322 323 322 323 324 325 324 320 318 317 316 311 307 316 318 309 304 303 303 305 302 298 299 301 301 309 316 314 314 320 323 320 309 313 322 328 335 337 338 338 336 337 339 340 341 341 341 341 342 343
317 317 318 318 318 318 317 317 316 317 317 316 316 316 318 319 320 322 325 323 327 327 328 323 322 324 317 311 317 336 320 316 320 324 324 326 324 321 322 321 322 322 322 318 319 320 317 320 311 308 310 310 308 304 300 299 298 301 300 301 300 302 302 306 311 316 321 320 320 320 309 314 316 325 332 336 337 337 336 337 339 339 339 339 339 340 341 341
316 317 316 317 317 317 318 316 316 317 315 315 315 316 317 319 321 324 326 327 327 328 327 324 325 325 312 317 324 316 314 316 321 322 323 324 324 323 322 320 319 319 318 317 316 316 315 314 313 310 311 310 305 302 298 294 296 296 302 299 300 302 302 301 310 313 319 319 314 317 313 313 317 322 328 334 336 336 335 337 338 338 338 339 339 340 340 340
316 316 316 316 317 318 317 315 316 316 314 313 313 315 315 321 325 325 323 326 329 329 325 327 323 315 312 323 313 311 318 318 320 319 321 324 323 321 318 317 316 315 318 314 315 313 313 308 310 302 303 303 304 301 297 293 296 295 299 298 299 304 303 304 301 314 318 318 314 315 315 315 319 324 326 330 336 336 335 336 337 337 338 338 338 339 340 341
316 315 315 316 316 316 316 315 315 314 313 313 316 320 322 322 319 319 321 322 320 318 312 316 315 301 301 312 320 317 321 320 323 320 317 319 320 320 319 320 317 313 311 309 306 311 310 306 304 301 300 300 301 302 300 302 303 299 299 297 301 302 301 301 310 317 318 314 313 314 313 316 321 323 327 332 336 334 334 335 335 335 335 335 336 336 339 340
315 315 315 316 315 315 315 315 314 313 312 310 313 320 322 313 312 317 321 321 318 316 320 318 321 322 320 313 316 317 323 322 316 317 318 319 321 317 316 316 314 313 307 303 305 308 309 302 300 299 300 303 305 305 305 305 305 303 301 301 302 303 303 306 309 315 318 314 312 314 316 318 319 322 326 329 331 331 331 331 331 331 333 333 333 335 337 340
315 314 315 315 315 315 315 314 313 313 311 310 312 312 307 310 306 304 310 312 319 320 319 318 321 320 318 315 315 315 312 313 316 315 316 321 319 314 310 313 309 305 304 307 305 310 309 302 300 303 305 305 305 305 304 304 303 303 300 302 301 302 300 307 310 315 317 311 308 313 314 315 317 321 325 328 329 328 329 328 329 331 331 331 332 333 334 337
314 314 314 314 314 314 314 313 313 313 309 307 318 311 311 315 316 316 314 306 314 317 317 318 320 319 323 315 315 315 313 311 311 312 316 318 315 309 307 310 306 303 306 306 305 303 302 298 303 305 308 308 306 306 308 304 303 302 299 300 300 301 303 306 308 310 315 314 308 312 312 312 315 321 325 326 327 327 329 330 331 331 331 331 333 333 334 336
314 314 314 314 314 313 313 313 312 308 312 321 316 311 314 316 321 325 318 310 309 317 317 316 314 315 314 314 316 316 310 307 306 311 313 316 312 311 309 307 305 307 307 304 301 302 301 301 305 308 307 306 305 304 304 302 301 301 300 300 298 305 300 299 304 311 314 310 309 311 310 311 317 321 322 326 328 329 331 333 333 333 332 332 333 334 334 334
314 315 315 314 313 312 312 311 309 317 319 318 318 316 318 321 324 322 316 307 308 314 317 319 314 312 310 310 314 313 309 309 309 309 318 314 308 311 310 307 304 304 303 304 303 301 299 304 307 306 306 306 305 303 301 298 298 302 301 299 298 303 299 298 299 308 311 314 314 312 310 308 315 316 319 325 331 331 332 333 332 333 334 335 335 334 333 333
314 315 315 314 312 312 310 309 313 318 320 319 316 319 320 329 325 317 310 307 309 309 318 316 315 314 314 320 315 311 311 312 310 313 316 314 310 310 307 312 308 303 304 306 304 301 303 307 309 308 307 306 302 301 301 299 296 297 304 301 302 301 301 300 303 303 297 304 311 312 297 302 306 316 320 324 327 327 330 329 329 330 331 332 331 331 332 332
314 315 315 313 313 311 310 312 316 320 320 315 321 320 321 327 325 321 312 304 299 308 311 305 316 308 318 311 314 312 311 307 311 314 317 315 318 310 315 304 307 301 303 303 302 302 303 308 309 309 304 303 302 301 304 301 296 295 299 304 304 304 301 299 301 295 293 296 306 314 300 296 305 313 318 321 323 323 325 327 327 327 327 328 329 330 330 331
314 314 314 312 312 309 310 315 318 321 316 317 320 321 324 324 330 323 307 300 294 304 302 310 311 311 317 312 312 312 300 300 314 315 315 323 313 316 306 302 305 309 310 309 300 299 310 308 305 304 304 302 301 299 304 302 296 297 302 303 302 303 302 304 299 297 293 303 309 307 304 298 298 308 315 320 320 320 321 323 325 325 326 326 327 328 328 329
314 313 312 312 310 310 307 313 316 318 319 321 323 325 325 328 327 322 309 292 296 309 305 306 311 317 314 313 313 306 306 310 306 310 315 316 315 311 308 305 304 304 306 302 295 299 306 306 305 303 301 299 300 306 306 303 301 299 302 307 303 306 303 304 300 296 297 294 293 300 309 298 297 305 316 318 315 315 318 321 322 323 324 325 325 326 326 327
313 313 313 312 311 310 310 310 319 317 323 324 325 325 328 326 321 308 300 292 308 308 317 308 319 313 312 312 309 310 310 313 304 309 314 315 314 309 304 305 306 306 307 304 301 303 310 306 305 305 299 299 306 304 304 307 302 303 304 305 305 304 305 304 299 302 296 294 290 296 304 296 296 305 311 315 314 314 317 320 321 322 323 323 324 325 326 327
313 312 313 311 308 316 314 315 314 321 325 325 324 325 325 320 309 298 293 288 307 298 309 309 308 305 309 305 306 309 307 309 311 312 313 310 312 313 311 311 310 307 303 306 303 304 308 324 315 307 303 307 303 304 305 304 305 307 304 302 300 300 299 300 300 298 293 292 289 298 305 303 294 303 310 309 312 316 317 318 320 320 319 321 323 324 326 327
312 311 311 311 304 307 311 308 315 321 323 324 325 324 321 315 304 294 288 295 309 308 309 306 305 310 305 303 300 306 308 308 309 309 306 311 306 310 309 304 307 301 299 299 300 306 308 307 306 308 315 310 307 305 305 306 308 305 301 299 297 296 298 296 295 296 291 286 294 299 304 306 295 299 307 315 316 319 319 317 318 317 318 320 321 324 326 326
310 309 311 308 309 312 311 309 318 321 322 324 324 319 311 303 306 294 295 312 300 303 301 301 306 306 305 306 304 303 302 306 309 307 303 302 302 302 301 299 301 297 293 295 297 303 302 302 306 310 330 309 305 302 302 302 302 301 300 298 292 288 289 286 289 290 289 289 296 305 307 301 297 300 308 315 314 319 321 320 319 318 319 320 322 324 324 324
308 308 309 310 312 310 312 313 316 317 323 324 320 315 306 298 292 300 302 304 301 305 302 307 304 305 305 303 302 304 306 301 306 307 306 305 302 302 303 303 303 298 293 298 299 299 297 306 307 306 306 312 303 298 295 298 300 298 295 294 288 286 286 285 287 288 287 292 300 299 307 298 302 307 314 313 315 321 320 320 321 320 320 321 322 323 323 323
307 308 306 312 314 315 316 321 322 326 323 322 312 306 305 296 296 325 306 305 304 309 309 307 306 305 304 300 302 304 300 305 305 304 305 303 301 299 301 304 304 303 304 302 296 294 291 294 299 306 300 309 304 300 301 299 301 300 304 297 293 289 290 286 287 286 286 288 293 302 300 298 300 302 316 316 318 319 319 321 320 321 322 322 323 322 323 323
307 307 308 310 313 315 315 317 318 323 325 315 305 302 296 295 301 301 302 303 306 308 307 307 304 303 301 302 305 305 304 301 306 305 302 301 298 298 299 301 304 304 304 297 301 302 299 295 300 307 306 307 306 308 307 303 299 301 301 300 296 294 295 289 289 287 290 289 290 295 299 304 305 314 318 318 319 318 320 319 320 318 319 320 321 321 321 322
307 310 314 312 318 325 323 322 322 325 318 308 302 296 296 301 299 305 304 309 309 306 306 303 303 303 299 298 303 305 307 303 304 305 303 301 301 299 303 304 304 304 299 295 301 296 299 298 306 312 309 307 307 309 310 308 297 300 299 296 300 303 301 295 298 300 296 292 289 301 302 307 312 312 315 316 316 316 318 318 317 316 319 320 319 319 319 320
307 313 312 313 315 315 321 328 330 324 315 306 299 295 301 306 309 309 315 309 307 308 301 297 297 298 297 297 298 303 304 305 303 302 298 303 299 302 304 305 306 306 307 303 304 301 296 297 303 306 308 308 309 309 309 309 305 299 297 297 303 306 303 295 291 289 287 288 289 302 300 301 300 298 312 313 313 314 315 316 317 315 319 318 318 318 318 319
307 311 317 316 318 319 320 327 323 316 312 306 299 315 314 305 312 311 311 310 310 307 301 300 298 304 299 298 296 300 303 301 300 302 299 301 297 305 304 307 310 308 308 306 300 303 301 297 299 305 306 308 310 306 305 306 308 301 300 305 298 293 292 293 292 287 286 285 286 292 303 302 300 302 308 309 311 312 313 314 314 316 317 317 318 318 318 319
307 312 307 315 323 323 326 324 318 313 307 303 299 303 311 308 311 312 313 313 310 307 301 302 301 302 302 297 301 304 303 296 301 299 299 301 297 304 306 306 308 309 308 307 302 304 302 293 296 305 306 308 305 302 298 299 304 308 305 301 303 297 294 294 294 292 289 284 286 289 298 296 306 307 310 309 312 312 312 310 313 316 317 317 317 318 318 318
309 302 299 315 325 326 329 322 314 309 304 300 299 303 310 308 312 314 313 311 309 305 302 302 305 300 302 303 304 300 304 303 301 299 300 302 300 306 309 309 307 310 310 308 304 305 301 299 293 300 305 303 300 303 300 299 300 300 298 297 298 299 301 297 299 293 289 285 282 285 291 292 299 309 312 312 312 313 311 310 312 315 317 318 318 318 318 318
311 303 300 315 322 325 321 314 309 305 304 304 307 307 308 308 311 312 313 314 310 311 306 306 305 304 302 302 300 308 303 302 302 299 301 302 301 299 307 310 310 307 308 307 304 303 300 299 294 298 302 300 299 303 304 304 301 299 296 297 298 300 294 293 289 296 298 289 286 286 286 291 303 319 315 313 314 313 311 311 312 315 317 317 318 319 319 319
308 300 303 316 318 315 310 306 304 307 304 303 302 308 309 327 311 311 312 313 311 308 312 312 306 305 303 303 302 304 304 301 303 303 304 300 308 304 307 310 310 308 303 303 303 310 302 303 297 296 296 296 301 307 311 308 307 305 302 302 301 298 294 290 288 288 294 295 299 290 291 294 307 314 315 315 314 313 312 312 313 314 316 317 319 320 320 320
306 307 319 317 314 312 306 300 306 305 303 305 312 311 312 311 310 312 311 310 308 311 313 307 306 305 305 306 305 303 306 304 307 304 306 306 308 308 309 310 310 310 309 307 306 306 338 300 300 298 299 304 305 308 310 310 307 306 307 305 303 299 298 295 290 291 291 294 289 288 289 288 303 315 313 314 313 312 311 313 313 313 315 318 319 319 318 318
300 301 305 312 315 313 302 296 295 297 300 305 306 305 309 309 309 309 308 310 307 307 309 306 307 307 305 308 305 304 308 300 305 305 305 308 305 310 310 314 316 312 309 308 302 308 302 302 295 291 288 290 295 299 301 307 305 303 304 302 302 301 301 301 301 296 292 292 292 287 285 289 305 316 313 312 313 312 311 313 314 313 314 317 318 318 319 319
300 305 304 308 317 306 298 298 297 297 301 301 301 300 302 307 311 310 309 309 312 308 308 306 308 307 305 306 307 305 309 303 301 305 306 308 308 317 313 314 316 313 323 323 334 310 304 305 294 289 287 288 288 288 288 294 299 304 309 308 307 302 300 299 297 295 289 292 295 288 287 291 302 312 312 311 311 310 312 313 315 316 315 316 318 318 319 319
302 297 305 308 310 303 303 304 302 301 298 300 299 301 305 303 309 312 311 310 311 313 307 308 308 307 306 305 304 305 305 308 304 303 304 306 307 310 314 316 316 319 333 341 330 316 307 307 299 292 293 292 293 292 301 307 304 301 302 304 304 305 302 300 295 290 291 288 293 288 295 296 305 309 310 311 310 310 311 312 313 314 315 316 317 318 319 319
306 303 305 300 309 305 305 304 306 305 301 303 295 303 303 304 306 307 312 308 310 309 309 308 308 306 305 304 304 303 308 306 308 306 304 304 309 308 314 315 318 326 340 331 326 309 304 300 304 299 300 299 299 302 307 310 303 303 303 302 304 302 303 301 297 294 295 293 289 290 294 300 303 308 310 311 309 310 311 312 312 314 315 316 316 316 326 318
299 306 311 311 301 295 303 303 309 305 306 305 301 307 305 304 304 303 308 310 309 309 306 306 307 307 305 304 305 303 305 306 306 305 309 308 308 309 309 311 314 330 320 310 319 306 302 298 303 304 303 305 305 305 305 304 304 305 304 302 303 304 304 302 299 300 299 296 294 296 297 300 302 308 311 312 311 311 312 312 314 316 316 315 315 317 315 317
309 308 308 311 305 307 308 310 311 306 302 303 304 312 306 305 302 306 308 306 308 307 308 303 304 305 305 306 305 302 306 301 300 307 306 307 307 307 304 307 312 315 308 309 308 311 301 299 303 303 302 301 304 306 304 306 304 303 303 303 304 303 301 300 301 303 302 299 300 301 299 301 305 306 311 312 312 313 313 314 315 314 315 315 314 313 315 316
304 302 301 307 308 306 308 309 308 304 299 305 301 304 306 305 303 305 307 306 304 305 308 304 304 306 306 306 307 303 305 307 305 305 311 307 307 308 305 306 306 309 308 308 309 310 304 298 314 303 299 299 303 305 306 305 305 300 301 302 303 302 302 302 303 303 305 302 303 302 300 301 306 309 311 313 313 313 313 314 314 314 314 315 314 313 314 316
308 310 309 302 300 304 310 306 303 302 298 298 298 303 304 303 303 305 304 309 306 305 307 304 305 305 308 306 308 309 311 310 310 310 311 308 303 309 305 308 308 305 309 308 307 309 306 299 308 301 297 297 302 305 303 303 302 301 301 300 301 301 301 303 303 304 302 300 301 301 299 300 306 312 312 312 312 312 311 312 312 313 314 314 313 313 312 314
309 311 312 307 299 312 303 304 304 300 295 301 306 305 305 306 308 308 300 306 309 309 308 308 307 307 309 308 308 310 311 313 311 310 309 310 311 311 310 309 308 306 307 308 308 302 302 301 300 297 295 294 300 305 302 301 299 297 297 299 303 302 302 303 304 308 308 305 299 298 295 302 308 312 310 309 311 311 311 311 311 312 312 313 313 313 313 315
Wind_Speed
21 21 21 21 21 21 21 20 20 20 20 18 17 17 16 16 16 16 15 15 15 14 14 14 13 13 13 13 14 13 13 7 6 0 1 9 6 4 6 6 2 9 5 1 3 5 6 4 5 3 2 1 4 1 5 1 1 2 0 1 5 2 0 1 1 2 4 7 5 9 12 19 12 5 5 11 12 9 9 9 7 11 10 8 11 15 17 17
21 21 21 20 21 21 21 21 20 20 19 18 18 17 17 16 17 16 16 15 15 14 14 13 13 12 12 12 11 11 10 4 5 5 16 6 7 4 6 1 7 8 5 1 1 0 3 6 4 7 7 3 2 2 0 1 2 3 0 2 3 1 1 1 4 3 5 8 9 9 9 12 7 6 0 8 5 11 11 8 13 14 13 13 15 15 14 14
21 21 21 21 21 21 21 21 21 20 20 19 18 17 17 17 17 16 16 15 15 14 13 12 11 11 11 11 10 10 7 3 1 6 13 16 22 14 5 5 6 8 3 0 1 2 3 4 5 6 4 5 2 2 1 3 3 3 6 1 4 2 1 1 1 4 6 9 11 12 10 13 4 5 3 8 8 10 13 10 9 13 14 13 14 14 13 11
22 22 22 22 21 22 22 21 21 21 20 19 18 18 17 17 17 17 16 15 14 13 12 11 10 9 9 9 10 5 3 0 1 4 1 3 8 13 8 7 7 6 1 0 0 2 3 5 5 1 3 2 4 3 2 4 1 1 4 2 2 2 3 3 3 5 11 13 10 12 10 13 5 4 5 9 10 5 6 11 16 15 15 15 14 15 12 11
23 22 22 23 22 22 22 22 22 21 21 20 19 18 18 17 17 16 16 16 14 12 10 9 9 8 8 8 7 2 0 2 4 2 1 6 3 8 11 7 4 1 1 2 4 4 3 3 3 2 0 3 3 5 3 2 4 2 2 3 3 1 5 2 7 19 13 12 12 9 13 9 6 9 7 7 10 5 7 7 15 16 16 16 16 14 12 13
23 23 23 23 23 22 22 22 22 21 21 20 19 19 18 17 17 16 16 14 13 11 10 8 7 7 7 6 3 4 1 1 2 2 5 7 10 13 11 9 6 3 1 1 0 3 4 3 4 4 3 2 4 2 8 3 1 1 1 1 2 4 5 0 8 10 12 11 12 9 6 7 9 6 6 10 4 3 8 12 15 16 17 16 15 14 13 13
23 23 23 23 23 22 22 22 22 21 20 20 20 19 18 17 16 13 14 13 11 9 8 6 6 6 7 6 2 1 1 6 3 2 8 8 9 12 10 7 5 3 1 0 1 1 1 3 4 4 2 3 5 4 8 2 1 5 1 1 3 3 6 4 10 12 12 12 11 9 7 11 12 11 4 10 6 6 12 13 12 13 13 15 14 12 14 14
23 23 23 22 23 22 21 21 22 21 21 17 18 19 18 18 16 15 14 12 9 7 6 5 5 7 4 2 0 2 1 5 11 3 9 9 8 9 9 4 5 3 3 4 2 1 2 2 3 3 2 2 2 1 2 5 5 4 2 1 1 3 4 10 11 10 14 12 11 11 12 9 11 7 5 7 8 10 13 13 13 13 13 12 12 12 12 12
22 23 23 22 22 22 22 22 22 22 20 18 17 17 19 18 16 14 12 10 8 7 5 3 3 3 2 2 1 1 4 7 4 6 8 8 6 6 7 3 2 5 2 1 4 2 3 2 2 2 4 5 1 5 4 5 5 1 3 1 2 2 6 3 11 9 11 9 13 16 13 10 14 13 11 7 8 9 13 13 13 12 13 12 11 12 11 11
23 22 22 22 22 21 20 21 22 22 22 20 17 16 17 17 15 13 12 10 7 4 3 4 6 5 2 1 0 1 5 3 3 7 7 8 7 7 1 2 5 3 1 2 1 2 2 4 3 9 8 3 2 4 4 1 2 1 1 3 4 5 4 5 5 6 5 9 17 17 11 6 1 3 5 6 7 12 10 10 10 11 10 10 9 10 11 13
24 24 22 22 22 21 20 21 21 22 21 20 19 17 17 17 14 12 10 8 5 4 3 4 4 3 2 1 5 3 3 4 2 6 6 7 8 6 6 5 5 3 2 3 3 3 6 5 7 5 2 1 5 7 5 4 0 3 2 3 2 4 4 3 7 10 9 6 14 15 10 7 7 11 8 8 7 13 13 9 8 6 4 3 7 9 9 9
23 23 23 23 21 20 19 20 20 21 20 19 19 17 17 16 14 12 9 7 4 3 5 4 5 2 3 0 0 6 3 5 6 6 6 7 4 7 6 7 8 6 5 3 4 4 6 7 1 1 1 1 3 4 4 3 2 1 6 2 3 0 1 5 8 8 9 6 15 15 14 8 5 9 9 8 10 13 12 10 10 9 7 6 6 5 4 5
23 23 23 21 21 21 20 20 20 21 19 18 17 15 15 14 13 12 8 5 3 6 5 7 5 2 1 0 9 8 5 1 7 8 5 5 2 4 6 4 8 8 6 4 3 5 5 5 2 5 2 1 0 1 4 5 7 1 2 2 2 2 1 4 6 6 11 6 14 8 7 3 8 9 8 9 13 13 12 8 7 7 8 7 6 4 4 4
24 23 23 22 22 21 21 19 20 18 18 17 17 16 14 13 11 9 7 6 4 5 8 10 4 2 1 3 6 4 9 4 4 5 6 5 3 3 4 5 5 4 4 5 8 7 9 5 1 1 0 0 2 3 8 5 1 2 1 4 1 1 3 2 5 9 13 2 2 11 10 4 7 6 6 7 14 15 10 7 7 7 8 7 7 6 5 1
23 24 23 23 22 21 19 20 18 18 17 17 17 16 15 13 10 7 5 5 6 5 8 6 2 1 1 7 5 7 8 6 4 5 7 6 5 2 4 4 5 6 7 7 4 4 5 3 1 1 2 0 1 4 5 3 3 1 2 2 2 5 4 2 2 9 13 1 12 16 9 8 8 8 8 6 11 14 11 8 7 8 8 8 7 8 7 6
24 24 24 24 22 22 20 19 19 17 16 18 18 17 17 10 6 5 5 4 6 8 6 2 2 2 1 2 2 5 4 5 8 10 6 8 6 6 5 5 4 5 4 4 7 5 4 1 1 3 1 3 2 1 3 5 4 2 3 2 1 1 2 2 5 8 16 7 3 10 8 8 4 7 8 8 13 13 12 9 8 9 8 7 6 6 6 9
24 24 23 23 24 24 19 20 20 17 18 17 20 15 7 5 3 5 5 5 5 5 3 0 2 3 1 2 3 1 2 4 2 5 4 5 7 7 2 3 4 7 5 6 4 2 2 1 1 2 1 0 1 2 4 5 4 4 0 5 4 5 1 4 2 5 4 9 5 8 11 5 8 8 10 9 13 12 11 10 8 7 6 6 6 6 7 7
24 25 24 24 26 22 22 21 20 19 18 19 17 7 3 2 9 10 6 2 3 3 4 3 2 1 5 2 2 4 2 2 3 6 7 6 9 5 3 3 4 5 1 2 1 1 1 1 1 2 4 2 1 1 1 5 6 2 1 3 2 4 3 8 4 3 10 11 14 9 13 9 8 8 9 11 11 13 10 9 8 7 7 6 6 6 7 7
24 25 26 23 21 23 24 21 21 21 19 16 12 5 7 8 3 2 2 2 2 0 1 0 1 2 1 6 5 3 1 7 2 3 4 4 3 4 4 3 3 2 1 1 4 2 1 1 5 2 3 3 5 5 7 12 5 3 4 4 7 11 4 5 8 7 16 10 12 14 12 11 9 10 10 11 12 14 10 8 7 6 6 6 6 5 6 5
24 24 26 22 26 25 25 23 21 19 19 9 4 2 0 3 2 0 1 0 4 5 1 4 3 3 8 3 2 3 2 4 4 7 5 5 2 5 6 3 3 2 2 3 1 1 2 2 3 5 8 8 8 6 10 13 6 4 2 4 4 7 2 3 8 6 12 10 7 12 15 13 11 12 11 11 11 11 10 9 7 6 7 6 6 6 5 5
23 25 23 24 26 25 24 24 22 18 12 3 3 1 3 1 2 4 5 7 7 8 10 11 10 8 7 2 2 6 3 2 0 3 6 2 4 2 2 1 1 2 4 5 4 1 3 1 7 10 11 10 11 8 7 4 4 4 6 9 3 4 5 2 11 9 8 10 4 7 12 8 8 8 10 10 13 11 12 10 8 8 6 6 8 6 4 3
24 24 26 26 26 26 25 24 23 19 7 2 1 2 1 1 2 3 1 6 7 7 8 14 6 8 7 9 6 5 5 1 3 5 4 3 1 3 2 1 3 7 1 0 2 2 1 6 11 12 12 10 10 5 2 5 6 7 10 7 7 6 4 5 2 4 0 9 4 5 11 6 5 6 6 10 10 8 8 10 11 11 8 6 6 6 4 4
24 25 25 26 26 27 26 23 23 14 1 2 4 1 1 4 0 1 1 1 7 5 5 5 3 7 6 6 1 7 4 3 7 3 3 4 1 7 2 1 3 2 0 4 4 1 4 7 14 14 9 5 1 3 5 6 6 9 9 9 5 3 4 1 2 3 2 2 8 5 10 3 4 3 3 3 9 6 7 10 9 10 10 8 7 6 5 3
23 22 24 24 27 26 28 24 20 4 5 5 3 1 4 1 2 4 1 2 4 7 5 6 4 3 5 5 3 7 5 3 2 7 4 5 5 3 0 2 3 1 6 4 8 9 8 6 6 3 1 3 2 5 4 8 5 4 7 5 3 1 3 4 3 2 7 10 12 11 8 4 2 5 3 3 6 11 9 9 6 5 7 7 6 5 6 6
22 21 21 24 25 27 30 21 2 3 6 2 2 4 2 1 3 3 2 3 1 5 4 2 3 2 3 0 5 5 4 1 5 3 5 6 4 2 3 2 2 6 9 7 3 4 3 6 1 2 1 3 5 6 2 6 6 3 1 2 4 4 5 2 3 8 4 3 3 14 3 0 1 2 7 6 6 7 6 9 6 5 5 6 8 7 6 5
23 20 20 23 23 27 29 4 3 7 7 0 0 4 2 1 2 3 3 1 2 3 1 3 1 3 1 2 3 2 4 2 6 5 6 7 5 5 0 2 3 6 4 4 6 5 6 2 1 0 5 6 5 3 1 5 2 6 1 3 1 1 2 4 3 6 3 7 10 2 10 3 1 4 7 7 7 7 3 7 7 6 5 6 7 8 7 7
22 21 22 22 20 20 11 2 4 8 1 2 2 4 6 2 1 3 1 2 2 4 4 1 1 1 1 4 5 4 2 7 2 3 5 3 6 1 3 6 3 1 1 0 3 1 0 0 3 7 6 4 5 4 1 4 4 1 1 3 3 3 1 1 4 3 2 1 5 4 4 8 4 8 4 7 9 7 6 6 8 8 7 8 8 8 7 7
23 23 22 20 19 10 5 3 9 6 5 5 3 5 6 2 1 2 1 2 1 1 2 2 1 2 1 1 8 4 4 2 3 4 4 2 3 1 2 2 3 4 5 3 3 4 3 1 4 4 4 3 3 1 2 1 1 3 2 4 4 2 2 3 1 1 1 4 1 1 4 5 1 2 3 7 10 5 9 10 9 9 8 9 9 9 9 8
25 24 19 20 21 15 6 3 1 5 6 3 7 7 6 3 1 2 2 1 1 0 1 1 2 1 1 3 3 3 1 0 2 4 0 1 2 3 2 4 3 3 3 4 1 1 2 4 5 8 5 2 3 2 2 5 1 2 2 4 3 4 1 3 2 1 2 2 4 6 4 4 1 3 7 4 5 11 11 11 11 9 8 8 8 7 7 6
24 23 19 18 12 2 2 2 7 9 6 6 7 7 4 2 3 2 3 1 1 2 1 0 1 4 3 4 2 2 4 1 2 1 1 3 1 1 2 2 1 0 3 1 3 6 2 2 5 5 2 3 2 2 3 3 2 0 5 4 4 7 5 3 4 3 2 2 7 8 8 8 3 7 11 12 12 15 9 4 4 4 5 6 7 7 7 7
24 24 17 11 4 4 4 5 9 8 8 4 6 5 1 3 2 2 1 4 0 1 1 0 3 2 4 6 3 3 3 2 2 4 0 0 2 1 1 3 2 2 2 3 2 2 1 1 2 0 4 2 2 2 3 4 2 3 2 2 3 7 6 5 4 4 1 4 5 4 9 6 6 3 7 12 3 12 16 14 12 10 9 8 6 6 7 6
27 25 19 7 6 3 3 7 2 1 4 5 4 3 3 1 3 2 3 1 1 3 4 4 4 2 7 4 3 3 4 2 2 4 5 4 2 2 3 4 1 0 3 1 3 1 1 0 1 1 1 9 2 4 8 5 6 7 5 8 5 3 5 4 4 1 1 4 3 3 3 1 2 3 7 14 4 10 10 13 15 14 11 8 7 7 6 6
27 26 25 10 8 5 8 10 7 7 4 4 3 1 3 3 1 5 2 1 2 2 4 4 5 5 5 5 3 5 4 5 3 3 5 1 4 5 4 6 7 6 3 3 1 1 3 4 2 2 5 1 6 3 2 4 4 5 2 2 4 2 2 0 2 1 3 6 3 3 1 1 2 2 3 7 7 10 8 7 10 13 12 10 8 6 6 4
27 24 11 4 9 10 7 4 5 1 5 4 1 2 3 2 3 5 5 3 5 2 3 2 6 4 4 7 6 5 3 2 6 4 6 3 4 2 3 5 4 2 3 1 3 4 2 1 4 2 1 1 3 5 6 4 2 1 1 5 5 5 1 1 2 1 2 6 5 4 1 1 1 5 6 2 9 9 8 10 9 8 10 8 7 5 5 6
29 19 9 7 6 11 15 12 7 1 0 2 5 3 3 4 2 2 2 2 2 1 1 3 8 5 5 5 3 2 5 1 6 5 3 6 5 4 4 6 5 5 2 2 2 1 8 4 6 3 3 4 4 3 4 3 1 0 2 5 6 2 5 2 5 4 2 2 4 4 0 1 1 2 4 2 11 9 10 10 9 7 6 8 8 7 6 6
16 9 4 5 2 5 8 6 4 4 4 5 5 1 3 4 2 0 1 1 2 3 4 4 1 3 1 5 2 2 6 4 6 4 2 5 6 7 7 3 4 8 5 6 2 2 1 0 2 2 4 5 5 3 0 3 0 2 2 1 3 4 6 1 2 0 2 3 1 1 2 2 1 6 5 5 10 8 9 9 10 8 9 9 8 6 6 5
10 9 6 3 3 4 5 6 6 6 2 4 4 1 6 3 5 2 3 3 4 1 4 6 3 2 2 3 1 3 2 2 5 4 3 2 3 5 3 3 5 5 9 9 0 2 9 3 4 3 2 3 2 5 4 0 5 3 1 5 1 2 5 4 1 2 3 1 2 1 5 3 1 1 1 3 10 8 9 10 8 7 10 11 8 7 7 7
8 5 6 5 9 6 3 5 7 3 2 1 1 7 1 2 2 1 3 7 2 3 2 1 3 4 1 1 3 2 1 5 6 5 2 4 3 2 7 2 1 4 7 3 7 2 7 2 1 2 7 3 3 5 4 3 1 4 1 2 4 1 2 3 3 0 1 1 1 3 2 2 4 3 5 8 12 10 11 8 8 9 10 10 8 8 7 6
4 2 5 6 3 4 3 6 4 5 2 1 2 0 4 5 4 4 7 9 2 1 1 0 0 1 1 3 2 4 2 3 5 6 3 2 2 3 3 4 1 3 4 7 6 1 2 4 2 2 4 1 2 4 1 3 5 2 3 3 1 4 2 1 4 4 3 2 1 1 2 4 6 6 12 13 14 14 10 8 9 12 12 11 10 9 9 7
3 3 3 2 3 5 4 5 4 3 2 2 3 3 1 3 6 8 5 4 1 1 1 1 1 1 2 1 1 1 2 1 7 4 2 2 5 2 0 1 6 1 1 4 3 4 1 2 2 2 2 3 1 0 4 7 4 1 4 1 2 1 2 3 1 2 4 3 3 2 1 6 6 6 12 13 12 12 13 11 10 11 11 12 11 11 8 7
2 2 5 3 4 3 6 6 2 1 1 4 1 3 3 3 3 4 8 10 3 3 1 1 1 1 1 2 4 0 1 1 0 1 2 1 2 0 1 0 1 4 2 5 6 1 3 1 4 1 1 1 3 5 6 5 6 3 3 2 3 0 1 0 6 3 1 4 2 2 5 6 7 3 11 10 11 10 9 12 11 11 12 10 9 8 7 6
2 1 4 3 8 6 3 1 1 1 1 3 3 1 2 3 4 5 8 2 2 1 0 0 1 2 1 2 3 1 1 2 1 0 1 2 1 2 2 2 5 4 5 2 3 1 4 3 6 4 4 6 3 3 4 11 6 5 6 2 3 3 5 3 3 3 2 1 2 4 1 6 6 4 8 10 11 12 11 12 11 10 10 10 9 8 6 7
1 7 8 12 10 1 2 1 2 1 3 3 3 6 6 5 4 3 6 0 2 1 0 1 2 1 2 1 1 1 1 0 1 0 1 2 2 3 6 5 8 8 7 1 2 1 6 3 2 4 5 6 4 3 5 3 4 2 1 1 2 2 5 7 7 6 4 0 2 0 1 4 4 2 5 9 8 8 7 10 12 9 8 9 9 7 7 5
3 5 10 7 2 1 2 2 2 3 3 3 3 6 6 6 8 7 5 1 1 0 0 1 3 3 3 1 1 1 1 1 3 2 1 1 3 6 8 9 7 3 3 2 3 1 2 1 7 2 3 5 8 5 4 5 4 1 2 2 2 2 4 2 5 2 2 5 6 4 4 4 5 2 4 5 7 9 9 6 11 11 7 9 9 8 6 6
6 4 6 8 5 2 3 4 3 3 2 3 4 8 7 3 4 7 5 4 0 1 0 1 1 1 3 1 1 1 1 4 0 5 1 2 1 2 7 9 8 5 3 3 7 3 3 1 4 3 4 3 2 2 4 1 1 1 2 1 1 4 5 3 1 1 1 2 5 3 3 7 4 1 4 4 5 5 5 7 5 10 11 10 8 7 6 6
3 3 5 5 5 3 1 0 1 1 3 4 5 6 4 4 3 8 6 5 4 1 3 1 2 4 3 4 3 1 2 1 2 1 1 1 0 1 3 6 6 3 5 9 5 4 2 1 3 5 8 9 10 7 3 2 1 1 2 3 6 2 4 3 4 5 6 4 6 6 7 3 2 8 9 11 8 12 9 6 10 8 6 7 6 6 6 7
2 2 3 6 7 5 3 3 5 4 3 4 2 2 4 3 2 5 2 1 1 1 0 1 0 2 1 3 2 3 1 3 1 2 2 3 1 0 2 6 5 5 9 4 4 5 2 2 1 6 5 7 9 5 4 3 3 3 4 5 5 4 3 5 5 7 3 5 5 4 5 5 9 11 14 13 7 6 8 9 8 8 8 8 7 6 6 3
1 2 2 2 1 3 7 7 7 8 8 5 3 3 3 4 3 2 3 1 3 2 1 4 1 1 3 3 1 0 2 2 2 1 0 0 2 1 2 4 2 1 6 1 2 4 3 1 2 3 2 4 5 4 3 2 5 3 4 5 7 9 2 4 5 8 7 8 11 7 7 7 8 11 15 16 17 17 13 10 9 11 9 6 5 5 4 4
1 2 2 7 4 3 2 9 9 6 8 4 2 2 2 3 5 1 1 3 3 2 2 2 2 4 4 2 1 1 0 2 2 1 1 0 1 2 1 2 2 4 4 1 2 2 4 1 3 2 0 1 1 1 0 1 3 5 5 8 10 9 8 6 6 5 9 7 11 11 8 13 13 8 9 5 5 7 6 6 6 8 9 8 7 5 6 6
5 3 5 5 2 5 6 6 4 5 7 4 1 4 3 3 5 5 2 3 2 4 1 3 3 4 5 3 1 1 2 2 3 2 2 4 0 1 1 2 2 2 1 2 2 2 2 3 4 2 1 2 3 5 3 3 2 4 5 7 8 7 8 6 4 3 7 6 6 7 5 9 7 3 4 7 10 8 8 9 11 9 7 8 7 6 6 7
4 3 4 5 6 5 4 4 5 6 4 6 6 9 9 8 7 6 4 1 1 1 1 4 5 5 3 4 3 2 1 3 1 2 6 5 5 4 5 2 3 4 0 2 1 0 1 1 1 2 2 2 2 2 4 6 5 2 4 5 6 7 5 3 4 5 4 6 1 2 1 7 4 4 6 9 11 13 12 9 7 6 7 7 8 7 7 7
7 3 4 2 2 4 4 5 6 3 2 5 6 7 3 10 13 15 8 5 1 1 2 2 4 0 1 7 3 2 2 1 2 3 4 4 3 2 2 4 7 7 3 1 0 4 2 4 3 2 2 2 4 1 2 2 5 8 6 4 2 4 4 5 4 3 1 3 3 1 4 5 5 7 11 6 10 8 9 8 6 7 7 8 9 8 8 9
Wind_Direction
338 337 337 336 335 335 333 332 331 330 328 326 324 322 320 319 318 316 314 312 311 312 312 312 314 314 315 316 319 319 325 332 322 277 212 244 219 213 203 324 120 163 150 127 13 14 332 332 308 301 306 126 258 215 231 181 181 60 91 133 308 208 358 250 150 191 140 98 82 76 105 113 120 135 121 80 64 75 68 70 67 68 81 106 123 130 138 143
338 336 335 335 334 334 332 331 331 329 327 325 323 321 320 318 317 316 314 313 312 311 311 311 312 313 313 314 317 319 328 302 290 267 231 241 273 241 220 136 137 165 159 31 62 44 328 298 302 354 338 308 239 221 193 284 126 128 344 93 224 236 282 194 196 176 92 89 93 90 88 92 115 133 159 93 95 99 82 66 83 86 94 108 122 133 137 142
336 336 335 334 334 332 332 331 329 328 327 324 322 320 318 317 316 315 314 313 312 312 309 309 311 309 310 313 308 324 334 305 252 273 269 220 234 233 206 154 167 176 151 197 194 190 226 274 321 343 306 284 258 234 1 262 92 219 123 194 236 219 229 357 61 58 117 106 83 86 91 90 89 83 148 102 127 109 111 110 85 110 123 127 130 132 136 137
335 335 335 333 332 332 331 330 329 327 325 323 321 319 317 316 315 314 314 314 312 310 309 308 307 308 307 305 315 317 332 270 285 249 239 5 234 235 187 160 174 186 345 59 317 293 288 305 313 323 287 307 291 18 350 282 92 235 77 153 219 234 105 308 344 63 83 97 95 88 80 81 66 78 93 128 98 81 120 138 136 141 140 137 137 138 138 136
334 334 334 332 331 331 331 329 328 327 324 322 320 317 316 314 313 313 314 314 313 311 309 305 303 301 301 297 314 343 246 35 269 226 34 347 218 172 158 146 142 125 169 296 331 303 311 315 322 308 71 288 334 345 233 240 180 106 165 216 170 146 72 287 62 95 108 107 96 92 90 100 114 68 84 115 115 170 164 153 140 145 142 141 144 147 142 140
333 333 332 331 331 330 329 328 327 326 324 321 318 316 315 313 311 311 312 312 310 307 305 302 296 295 290 299 297 305 87 154 270 293 52 56 82 112 115 126 147 153 103 12 342 324 353 344 18 4 344 356 295 310 281 290 103 106 321 151 162 135 124 236 98 98 98 92 95 92 101 104 85 77 50 66 66 210 146 147 147 147 149 146 144 146 143 143
332 331 330 329 329 328 328 326 327 325 322 319 317 314 313 312 310 309 309 308 302 303 300 294 293 286 277 303 267 181 119 271 312 236 77 79 95 107 117 129 142 112 102 12 341 41 27 354 20 301 309 290 277 206 250 219 288 103 167 34 25 119 106 119 97 108 105 109 111 112 115 93 91 77 30 48 19 116 133 140 141 137 134 139 146 151 145 148
331 330 328 328 328 327 326 326 325 323 321 316 315 314 312 311 311 311 310 304 300 294 293 282 285 281 284 271 145 19 60 255 254 123 106 100 98 113 116 111 134 106 143 211 178 155 43 307 280 290 251 217 241 259 307 3 36 85 20 297 187 109 141 107 105 110 112 108 108 105 88 89 86 95 65 47 34 118 133 137 135 134 139 146 144 144 145 145
329 328 326 326 326 324 324 324 322 321 319 316 312 312 312 312 311 310 308 302 299 287 270 261 227 272 290 286 145 32 260 236 214 133 122 115 122 133 128 128 174 143 190 193 232 34 42 301 294 206 286 345 320 343 1 40 333 90 188 192 143 138 139 167 122 119 113 110 111 90 94 102 109 101 65 58 45 120 133 134 133 134 143 151 150 145 146 150
328 328 326 324 323 322 321 320 320 320 318 317 313 310 313 311 310 309 306 304 292 272 266 255 242 243 227 238 63 81 256 138 72 126 128 123 126 140 240 126 153 147 156 264 43 115 209 237 249 281 265 266 1 326 3 97 226 178 214 160 147 183 139 157 122 122 133 116 108 109 118 129 228 85 75 47 70 100 111 120 128 138 150 150 147 149 151 156
328 327 324 322 322 321 318 317 317 317 316 314 312 311 310 309 307 305 305 302 287 262 225 184 168 180 242 235 138 199 250 82 127 132 152 134 127 137 193 165 166 147 201 301 270 192 237 242 257 279 276 244 357 326 355 251 104 184 155 78 96 219 144 124 102 108 108 90 113 112 98 79 62 87 110 101 79 101 109 106 94 86 95 108 146 157 167 158
326 325 322 321 317 314 314 314 313 315 313 310 307 303 306 304 303 302 299 292 273 213 174 212 179 219 267 306 226 229 192 175 157 156 168 144 160 196 190 170 167 186 162 210 266 236 224 245 217 41 252 18 335 327 307 351 306 232 129 160 188 343 51 130 136 142 112 138 118 112 94 65 74 97 109 105 96 89 96 99 98 96 90 86 102 107 119 154
324 324 321 317 316 315 314 313 314 315 311 306 301 296 301 298 297 296 289 275 244 195 182 168 168 245 259 100 227 232 281 105 164 152 177 189 208 196 203 184 191 194 190 197 244 262 271 269 292 335 234 40 215 227 283 351 300 41 34 130 14 357 330 179 108 132 116 158 133 118 63 71 101 113 118 116 99 90 84 82 88 95 90 88 96 94 86 133
324 322 321 319 316 315 315 312 314 313 310 305 304 302 298 293 290 282 269 239 182 153 168 172 206 250 146 255 267 212 219 163 163 144 187 195 178 247 230 238 217 222 213 217 251 266 278 266 333 243 206 115 285 302 340 325 210 197 195 49 105 99 263 223 138 153 121 202 13 103 114 138 120 118 121 123 108 101 96 89 80 71 69 74 70 68 68 38
323 323 321 319 317 315 317 316 315 317 309 309 308 300 298 295 287 273 234 194 208 184 147 150 208 12 344 261 260 275 172 119 173 212 195 162 191 296 250 254 246 225 219 220 239 242 249 324 30 28 305 275 25 17 333 347 335 22 90 266 347 167 275 310 161 135 124 215 125 87 102 145 147 142 139 122 105 105 100 93 83 77 74 76 74 73 73 79
325 323 320 320 318 319 317 320 321 317 318 317 311 306 301 288 267 228 165 157 171 160 162 156 184 208 292 360 291 318 92 164 201 211 214 171 182 210 224 217 254 270 260 271 222 246 282 277 214 201 289 6 50 58 1 20 327 1 138 242 205 121 241 82 14 130 139 147 315 121 130 131 135 155 134 134 110 107 107 102 97 89 80 71 73 74 74 73
324 324 321 320 322 318 320 325 325 323 323 319 312 307 286 265 207 159 167 150 125 158 207 313 95 194 7 254 335 308 214 239 204 188 204 199 187 213 221 212 251 248 253 269 296 330 300 28 285 20 21 299 136 87 36 1 322 306 344 201 189 172 241 108 134 15 134 113 69 90 114 141 146 140 136 126 118 113 108 109 102 93 86 81 78 68 69 67
325 326 324 321 321 321 324 328 328 326 326 323 311 290 281 115 140 111 82 142 147 182 248 259 262 346 283 317 272 219 191 220 198 208 198 202 189 211 204 213 239 219 256 303 336 208 296 323 27 217 352 1 26 88 118 244 205 221 207 240 265 149 166 162 132 160 95 102 105 94 98 117 120 114 124 128 122 112 114 118 117 108 95 86 75 77 74 71
326 326 326 321 320 324 326 327 330 329 328 325 298 64 102 122 144 293 149 167 121 358 7 196 147 62 193 216 236 326 189 208 169 142 224 206 225 208 218 212 230 155 229 154 283 152 328 346 25 24 287 299 262 177 195 234 205 189 209 212 156 151 192 125 127 152 122 120 121 123 130 135 131 124 125 127 127 118 122 115 109 105 101 95 91 78 83 87
327 327 325 322 326 326 326 328 327 329 335 355 6 80 233 19 12 345 252 218 220 219 272 212 217 296 318 310 144 234 194 106 149 210 217 203 164 199 225 177 214 166 128 189 308 279 141 184 231 219 227 233 255 238 223 241 236 199 144 78 121 120 118 139 114 153 124 102 133 136 138 143 145 141 138 131 120 115 121 125 122 119 113 104 94 96 89 80
327 328 325 325 327 326 326 325 327 322 335 260 284 68 67 350 29 323 322 256 235 242 253 254 207 219 237 257 191 142 149 228 151 222 220 177 179 92 254 131 70 216 218 200 161 252 92 200 254 239 241 227 232 234 219 269 60 70 94 122 99 126 141 138 139 164 157 117 208 146 129 130 141 139 138 132 123 131 136 132 129 127 117 117 115 104 99 106
327 328 329 328 326 326 324 325 324 325 322 213 6 68 200 214 194 203 123 318 315 250 233 252 241 251 245 245 210 139 82 136 266 276 287 135 218 137 282 160 171 217 286 81 24 2 78 212 241 242 244 257 249 233 306 52 41 46 92 97 80 13 23 349 78 166 262 99 171 137 114 135 143 141 148 139 131 138 137 135 138 131 127 128 120 122 125 99
326 327 329 329 328 325 324 324 321 332 260 24 3 346 27 277 357 50 97 278 272 265 265 259 226 221 237 220 241 108 140 192 209 254 240 144 101 191 189 158 249 257 158 123 175 158 268 262 242 244 235 194 273 17 40 44 40 63 53 80 119 150 100 285 327 132 114 124 148 116 103 72 67 75 87 107 122 125 120 124 126 130 136 143 144 145 139 101
324 323 327 331 329 327 319 325 309 291 347 311 236 324 287 37 56 58 73 210 282 309 216 227 189 207 201 167 209 143 160 233 132 231 228 137 177 184 147 201 239 301 264 200 171 183 205 224 196 160 114 81 33 35 47 78 65 53 107 137 139 118 172 147 212 91 62 74 110 99 79 43 76 121 91 78 109 118 128 122 118 129 133 135 123 111 123 130
323 323 325 330 332 328 316 320 3 333 302 302 214 311 20 56 77 110 88 313 325 271 250 268 161 245 216 83 120 154 197 255 221 213 182 155 175 90 214 175 160 246 247 260 137 162 253 260 172 48 356 66 85 59 59 119 64 54 273 157 153 173 158 196 131 104 41 89 198 128 60 71 288 167 142 141 124 129 146 131 140 138 125 125 125 125 126 123
323 323 327 332 331 331 309 331 14 328 339 148 53 323 354 58 110 106 93 77 309 260 34 261 124 269 157 179 138 169 91 258 223 214 175 194 159 160 94 287 185 245 255 230 179 190 188 275 90 131 66 68 75 89 276 101 135 78 265 163 139 88 70 73 116 76 109 155 228 223 130 207 240 191 164 153 145 148 144 140 143 138 140 137 139 141 140 140
322 324 328 329 333 340 355 348 306 320 14 300 323 323 337 346 138 89 80 342 348 234 170 270 115 250 101 194 141 91 90 256 283 174 181 171 181 122 196 251 342 287 169 27 43 281 195 77 67 60 77 75 61 51 306 114 87 43 236 153 129 105 101 178 134 147 210 196 172 80 113 130 177 228 197 160 145 150 147 151 151 154 152 150 147 145 145 144
321 324 326 327 329 334 211 330 333 329 237 240 325 344 323 320 36 68 84 53 260 257 190 217 222 337 14 162 126 141 208 195 106 244 189 244 115 2 164 220 196 248 290 77 192 260 161 211 130 88 81 85 115 200 228 111 105 220 259 41 356 357 341 355 35 90 125 106 219 335 109 66 228 243 129 160 132 167 169 165 168 162 161 158 150 152 151 148
320 321 324 327 324 307 205 240 244 256 244 304 326 317 327 313 97 104 133 116 254 212 295 122 282 106 242 74 183 205 330 211 136 240 333 31 212 139 197 241 211 248 242 168 143 283 313 169 182 138 125 147 237 201 179 123 50 285 206 49 19 25 333 282 246 154 4 65 245 215 166 115 262 184 148 238 156 180 182 178 172 173 168 160 154 155 150 152
317 317 322 329 321 101 203 198 236 240 273 297 297 310 316 54 38 40 26 284 197 269 193 333 132 209 141 148 223 187 208 288 163 146 162 168 229 56 225 168 173 284 334 302 129 187 201 246 178 90 148 178 186 238 192 171 195 323 49 44 26 33 4 7 59 100 56 329 251 207 176 140 182 207 184 172 209 179 162 167 169 160 155 157 156 152 155 161
317 315 315 331 297 282 326 283 253 239 240 288 304 311 71 33 116 101 161 231 110 251 69 200 209 130 143 164 202 227 201 194 230 137 336 313 0 316 10 355 21 25 19 7 357 314 340 7 30 277 117 112 94 11 12 49 56 99 50 87 26 346 7 30 343 41 100 271 270 262 184 145 169 241 234 227 43 164 164 170 171 163 163 161 157 155 156 153
317 314 308 300 236 295 212 244 233 297 331 338 342 19 67 59 10 130 220 299 259 234 176 203 242 175 186 184 145 201 193 202 196 163 166 191 158 152 227 192 203 47 329 268 271 337 337 346 244 69 285 91 43 46 322 5 32 55 61 40 75 306 28 345 9 5 204 225 259 86 87 40 238 223 248 214 180 172 177 167 166 159 162 163 162 152 153 155
317 311 309 267 217 194 235 249 306 305 336 358 6 58 76 104 193 247 297 299 266 160 243 143 192 191 176 146 234 225 202 198 225 227 147 207 149 234 229 181 178 146 187 265 134 26 293 309 3 360 16 17 107 96 313 15 353 38 81 94 73 52 41 129 282 207 310 299 253 30 28 119 272 282 343 194 185 169 155 148 150 156 158 161 154 150 147 141
314 312 312 240 193 215 244 243 250 320 1 9 62 31 57 95 244 224 207 214 240 223 175 163 199 185 142 171 221 173 194 236 175 211 158 181 136 212 297 279 175 168 153 191 145 160 80 323 292 135 274 250 96 153 174 166 188 252 207 127 167 147 156 236 215 197 215 217 285 313 71 233 54 256 326 204 134 135 136 138 142 150 157 148 137 132 125 116
311 296 255 264 239 245 238 243 249 250 133 47 51 84 141 230 236 244 287 296 288 330 312 221 172 170 210 224 257 182 151 235 215 172 189 147 213 175 194 240 220 161 114 109 255 89 175 188 246 203 189 159 146 216 144 101 35 309 116 78 74 191 136 149 200 159 245 320 343 354 55 268 151 325 352 97 112 119 129 131 137 134 123 128 129 132 137 140
313 316 259 261 230 259 191 212 175 155 104 48 74 79 177 206 239 213 247 223 286 352 308 19 79 186 170 228 297 225 217 152 208 158 211 202 200 184 207 209 211 162 138 161 206 84 46 352 277 65 13 147 175 141 87 112 171 262 56 338 193 186 112 117 339 33 47 50 301 154 39 11 351 17 9 84 106 121 132 139 140 134 138 134 137 143 147 154
342 326 339 275 267 235 183 165 144 128 93 86 94 238 217 267 229 228 262 303 279 94 41 49 287 117 221 221 244 229 239 96 186 177 245 215 302 222 201 252 204 158 175 133 284 183 136 210 266 99 121 268 205 129 116 121 145 76 64 243 181 96 117 117 196 339 64 121 263 70 163 199 122 201 278 107 120 144 145 159 139 133 141 140 153 156 161 167
320 312 257 255 244 245 202 171 120 86 79 88 164 217 281 274 268 166 288 299 309 57 90 118 279 88 281 68 320 283 268 166 206 201 220 192 240 221 153 158 353 163 174 220 121 236 110 123 289 219 165 235 17 63 8 325 61 146 194 202 97 279 9 330 88 71 20 315 263 345 212 249 175 192 159 191 158 171 175 158 132 146 147 151 160 164 172 176
250 305 322 250 235 177 150 118 77 81 66 28 236 60 254 229 267 301 299 291 269 15 79 229 346 300 37 360 324 315 198 181 201 200 163 231 209 244 192 162 82 335 149 115 82 178 56 126 297 298 159 183 35 69 245 276 333 22 85 27 226 104 179 127 195 188 126 248 28 295 122 233 211 206 184 189 178 175 172 168 160 158 160 161 167 169 175 179
354 16 285 277 146 148 137 79 63 48 80 207 234 221 254 293 281 282 293 288 312 23 216 148 57 310 350 211 81 327 302 240 194 243 148 200 184 289 252 349 147 151 245 90 128 141 53 104 133 273 311 56 47 254 223 188 168 356 34 347 0 10 211 130 356 121 161 170 181 164 258 272 261 197 185 190 188 176 168 170 162 164 169 168 168 171 177 178
287 179 267 295 1 344 64 55 61 128 199 259 207 255 296 269 306 316 293 272 272 219 164 357 359 210 215 352 323 124 319 297 313 327 211 235 129 58 257 246 156 129 107 50 66 37 79 70 138 302 42 160 204 233 188 164 156 159 147 186 169 95 45 124 275 346 84 98 178 129 241 266 264 177 188 187 184 172 176 159 161 170 170 170 176 175 169 173
341 353 256 290 342 9 79 59 263 194 157 212 239 217 269 250 258 254 282 278 161 284 37 334 263 223 227 232 197 13 20 319 282 58 333 146 240 146 297 172 137 139 100 125 143 236 142 154 108 138 178 199 214 251 176 161 145 157 139 222 178 151 111 115 230 270 7 306 119 146 137 271 238 199 176 181 173 178 169 156 159 166 168 173 178 170 182 177
18 258 274 304 299 328 100 298 298 330 247 245 272 262 259 258 248 268 283 351 327 219 318 195 211 318 269 193 38 73 119 338 304 199 331 20 31 356 300 70 99 71 78 352 28 318 51 85 61 309 320 319 332 326 73 20 90 74 352 78 106 163 173 182 178 186 151 214 51 2 223 252 279 204 174 174 173 169 157 155 150 159 167 170 163 174 184 183
291 277 305 294 287 71 76 192 271 274 267 295 256 265 271 268 277 286 264 259 199 30 313 259 302 193 231 233 161 237 194 72 304 40 46 5 36 354 1 46 67 47 82 217 124 238 76 298 115 53 355 342 343 353 7 338 49 57 300 275 180 96 89 124 107 55 89 217 172 128 241 271 273 158 162 163 165 164 163 176 151 148 163 161 167 176 180 179
279 252 230 290 335 103 183 194 180 254 285 313 310 306 308 289 228 236 230 258 144 182 66 316 282 276 285 268 256 213 204 148 203 313 65 66 44 32 37 55 53 72 25 159 114 122 87 152 98 131 156 193 246 279 264 270 270 271 266 268 301 126 140 119 155 144 138 269 127 140 247 256 272 162 190 209 180 171 173 152 160 150 154 157 166 170 179 177
349 354 299 319 353 5 265 195 89 2 329 319 321 278 251 271 302 307 263 245 190 223 193 204 320 20 27 16 12 18 329 113 124 249 39 201 247 17 158 95 96 119 97 81 81 68 114 68 100 150 160 191 206 211 250 114 55 272 267 291 289 232 177 120 88 91 203 209 181 227 187 231 238 207 206 209 191 175 170 161 149 148 150 154 158 166 175 186
304 14 345 326 327 17 359 1 6 24 332 292 286 269 293 274 281 304 242 300 312 139 330 210 151 352 295 20 360 330 291 327 15 104 177 150 265 163 327 106 92 106 112 92 79 75 71 61 203 130 167 197 188 193 227 183 223 227 258 274 275 269 204 177 178 239 174 98 262 264 209 170 228 210 208 201 189 183 170 163 153 148 153 160 169 177 184 171
347 286 25 5 169 294 6 338 344 329 318 328 256 265 277 308 302 270 318 309 345 348 21 333 38 212 210 205 196 277 320 332 336 228 208 60 148 136 89 348 35 202 91 42 48 106 130 132 260 141 241 220 201 223 246 232 205 224 241 252 265 274 275 189 225 216 138 193 218 242 195 199 235 218 211 201 181 185 174 163 156 157 158 158 161 160 149 131
325 322 320 7 352 309 271 269 298 314 314 317 271 276 282 321 311 299 294 317 358 330 249 246 284 279 298 307 128 206 174 21 318 318 94 36 124 106 41 10 357 16 82 76 51 116 91 211 196 165 250 292 296 272 293 314 313 319 304 292 276 249 242 220 220 204 181 205 219 224 196 214 222 229 228 205 146 139 139 141 134 143 163 168 163 157 141 142
13 344 328 355 299 292 286 301 319 350 334 322 358 283 289 317 320 320 338 44 346 327 319 235 260 279 270 314 63 318 253 218 209 241 223 119 339 88 179 180 170 311 82 129 118 327 104 271 231 100 71 307 289 323 339 354 4 301 298 290 282 252 248 237 230 203 188 240 260 243 204 249 262 217 204 145 139 127 126 142 159 166 157 160 160 153 158 160
314 305 318 310 319 295 309 330 340 331 330 335 8 339 332 341 328 336 303 216 211 225 304 296 279 301 354 34 61 83 90 69 59 219 212 144 165 213 127 241 140 140 47 110 61 153 115 216 63 79 96 301 306 8 317 2 351 299 292 305 292 300 304 289 275 240 231 249 185 100 272 262 288 68 102 124 136 142 147 149 148 161 167 158 157 169 168 178
324 295 331 297 293 294 333 320 316 359 1 5 357 333 328 327 339 344 330 282 281 224 217 286 294 104 6 75 84 327 307 8 206 251 277 215 152 141 110 156 143 146 171 103 220 117 144 127 107 104 118 252 259 75 351 356 9 328 287 235 252 276 253 287 316 24 263 146 113 170 236 208 177 143 116 124 129 134 143 157 154 164 170 161 167 177 188 189